Weather Roundup
Issued by NWS

Home | Current Version | Previous Version | Graphics & Text | Print | Product List | Glossary Off
Versions: 1 2 3 4 5 6 7 8 9 10 11 12 13 14 15 16 17 18 19 20 21 22 23 24 25 26 27 28 29 30 31 32 33 34 35 36 37 38 39 40 41 42 43 44 45 46 47 48 49 50

000
NZUS93 KARX 022159
HRRWXR

CURRENT HOURLY OBSERVATIONS ACROSS
MUCH OF THE UPPER MISSISSIPPI VALLEY
NATIONAL WEATHER SERVICE LA CROSSE WI
400 PM CST MON MAR 02 2015


...SOUTHEAST MINNESOTA...


CITY           SKY/WX    TMP DP  RH WIND       PRES   REMARKS
ROCHESTER      PTSUNNY   19   9  65 S8        30.30F WCI   9
ROCHESTER/MAYO MOCLDY    22   6  50 SE7       30.31F WCI  14
WINONA         PTSUNNY   28   5  37 S3        30.37F
AUSTIN         PTSUNNY   19  10  68 SE6       30.29F WCI  11
ALBERT LEA     PTSUNNY   21  14  73 SE12      30.28F WCI   9
DODGE CENTER   MOSUNNY   19  12  73 S9        30.29F WCI   9
PRESTON        CLOUDY    19   9  64 S7        30.32F WCI  10
OWATONNA       MOSUNNY   21  12  68 SE9       30.28F WCI  11
FARIBAULT      PTSUNNY   23  10  58 SE9       30.29F WCI  13
$$

...ELSEWHERE IN MINNESOTA...


CITY           SKY/WX    TMP DP  RH WIND       PRES   REMARKS
MINNEAPOLIS    PTSUNNY   25   4  40 S10       30.29F WCI  15
INTNL FALLS    SUNNY     27   7  42 S8G21     30.09F WCI  19
DULUTH         SUNNY     27   5  39 SW13      30.18F WCI  16
RED WING       MOSUNNY   25   3  39 S5        30.32F WCI  19
REDWOOD FALLS  CLOUDY    26  15  63 S20       30.21F WCI  12
MANKATO        PTSUNNY   25  10  54 S12       30.27F WCI  14
FAIRMONT       CLOUDY    25  16  68 SE13      30.24F WCI  13
$$

...SOUTHWEST WISCONSIN...


CITY           SKY/WX    TMP DP  RH WIND       PRES   REMARKS
LA CROSSE      PTSUNNY   27   9  46 S3        30.36F
PRAIRIE DU CHI PTSUNNY   27  11  50 SW5       30.38F WCI  22
BOSCOBEL       PTSUNNY   27  12  53 S5        30.38F WCI  22
LONE ROCK      NOT AVBL
PLATTEVILLE    PTSUNNY   24  14  65 NE5       30.38F WCI  18
FORT MC COY    MOSUNNY   27   1  33 S7        30.37F WCI  20
VIROQUA        FAIR      26  10  49 SW5       30.34S WCI  20
WIS DELLS      NOT AVBL
$$

...ELSEWHERE IN WISCONSIN...


CITY           SKY/WX    TMP DP  RH WIND       PRES   REMARKS
MILWAUKEE      PTSUNNY   27   8  44 S9        30.40F WCI  18
MADISON        PTSUNNY   27   9  46 S6        30.38F WCI  20
GREEN BAY      SUNNY     27  14  58 S7        30.37F WCI  19
EAU CLAIRE     NOT AVBL
BLACK RVR FLS  FAIR      28   4  34 S5        30.34F WCI  23
MEDFORD        SUNNY     21   6  53 SE7       30.30S WCI  12
WAUSAU         SUNNY     24   2  38 W6        30.30F WCI  17
WIS RAPIDS     SUNNY     27   3  35 S6        30.34F WCI  20
MARSHFIELD     SUNNY     24   6  46 E7        30.31F WCI  16
RICE LAKE      SUNNY     25   7  46 S7        30.31F WCI  17
$$

...NORTHEAST IOWA...


CITY           SKY/WX    TMP DP  RH WIND       PRES   REMARKS
DECORAH        PTSUNNY   23  10  58 VRB5      30.34F WCI  17
MASON CITY     CLOUDY    21  14  74 SE10      30.31F WCI  10
CHARLES CITY   CLOUDY    21  10  63 SE6       30.33F WCI  14
OELWEIN        CLOUDY    21  12  68 S5        30.35F WCI  15
$$

...ELSEWHERE IN IOWA...


CITY           SKY/WX    TMP DP  RH WIND       PRES   REMARKS
DES MOINES     CLOUDY    32  16  51 SE12      30.31F WCI  23
IOWA CITY      CLOUDY    26  15  63 SE9       30.39F WCI  17
FORT DODGE     CLOUDY    28  18  64 SE12      30.28F WCI  18
$$

...NORTHERN ILLINOIS...


CITY           SKY/WX    TMP DP  RH WIND       PRES   REMARKS
CHICAGO-OHARE  CLOUDY    32  10  40 E3        30.39F
CHICAGO-MIDWAY PTSUNNY   31  18  58 E10       30.41F WCI  22
MOLINE         CLOUDY    27  17  66 SE7       30.40F WCI  19
ROCKFORD       CLOUDY    26  13  57 S6        30.43F WCI  19
PEORIA         CLOUDY    30  18  60 S10       30.42F WCI  21
$$

NOTE: "FAIR" INDICATES FEW OR NO CLOUDS BELOW 12,000 FEET WITH NO
SIGNIFICANT WEATHER AND/OR OBSTRUCTIONS TO VISIBILITY. WIND
SPEEDS ARE IN MILES-PER-HOUR.



USA.gov is the U.S. government's official web portal to all federal, state and local government web resources and services.